When you browse on this site, cookies collect data to enhance your experience and personalize the content and advertising you see.
Visit our Privacy Policy to learn more. By continuing to use the site, you agree to this use of cookies and data.
  • In Deutschland
  • Länderverzeichnis
  • Für 7 Tage
  • Wassertemperatur
  • Wetterkarte
  • Widgets
  • user-avatar
    Anmelden

    Stündliche Wetter Manama

    Heute, 17 November, Sonntag

    Zeit Temperatur Niederschläge Wind Luftdruck Luftfeuchtigkeit
    00:00 +27°C° 0 mm 5 m/S 761 mmHg 49%
    01:00 +28°C° 0 mm 5 m/S 761 mmHg 50%
    02:00 +28°C° 0 mm 5 m/S 761 mmHg 52%
    03:00 +28°C° 0 mm 5 m/S 760 mmHg 53%
    04:00 +28°C° 0 mm 5 m/S 761 mmHg 55%
    05:00 +28°C° 0 mm 6 m/S 761 mmHg 57%
    06:00 +27°C° 0 mm 6 m/S 762 mmHg 59%
    07:00 +28°C° 0 mm 7 m/S 762 mmHg 58%
    08:00 +28°C° 0 mm 7 m/S 762 mmHg 58%
    09:00 +28°C° 0 mm 7 m/S 762 mmHg 58%
    10:00 +29°C° 0 mm 7 m/S 762 mmHg 58%
    11:00 +29°C° 0 mm 6 m/S 761 mmHg 58%
    12:00 +29°C° 0 mm 6 m/S 761 mmHg 58%
    13:00 +29°C° 0.1 mm 6 m/S 760 mmHg 59%
    14:00 +29°C° 0.1 mm 6 m/S 760 mmHg 59%
    15:00 +30°C° 0.1 mm 6 m/S 760 mmHg 59%
    16:00 +29°C° 0.2 mm 6 m/S 760 mmHg 61%
    17:00 +29°C° 0.2 mm 7 m/S 761 mmHg 62%
    18:00 +29°C° 0.2 mm 7 m/S 761 mmHg 63%
    19:00 +28°C° 0 mm 7 m/S 761 mmHg 63%
    20:00 +28°C° 0 mm 7 m/S 761 mmHg 64%
    21:00 +28°C° 0 mm 7 m/S 761 mmHg 65%
    22:00 +28°C° 0 mm 7 m/S 761 mmHg 64%
    23:00 +28°C° 0 mm 7 m/S 761 mmHg 63%

    Morgen, 18 November, Montag

    Zeit Temperatur Niederschläge Wind Luftdruck Luftfeuchtigkeit
    00:00 +28°C° 0 mm 7 m/S 761 mmHg 62%
    01:00 +28°C° 0 mm 7 m/S 761 mmHg 61%
    02:00 +28°C° 0 mm 6 m/S 760 mmHg 60%
    03:00 +28°C° 0 mm 6 m/S 760 mmHg 59%
    04:00 +28°C° 0 mm 6 m/S 761 mmHg 59%
    05:00 +28°C° 0 mm 6 m/S 761 mmHg 60%
    06:00 +28°C° 0 mm 6 m/S 761 mmHg 60%
    07:00 +28°C° 0 mm 5 m/S 762 mmHg 59%
    08:00 +28°C° 0 mm 4 m/S 762 mmHg 58%
    09:00 +28°C° 0 mm 4 m/S 762 mmHg 56%
    10:00 +28°C° 0.1 mm 5 m/S 762 mmHg 57%
    11:00 +27°C° 0.1 mm 7 m/S 762 mmHg 58%
    12:00 +27°C° 0.1 mm 8 m/S 762 mmHg 59%
    13:00 +27°C° 0 mm 7 m/S 762 mmHg 58%
    14:00 +27°C° 0 mm 7 m/S 761 mmHg 58%
    15:00 +27°C° 0 mm 6 m/S 761 mmHg 57%
    16:00 +26°C° 0 mm 6 m/S 761 mmHg 60%
    17:00 +26°C° 0 mm 6 m/S 762 mmHg 63%
    18:00 +26°C° 0 mm 5 m/S 762 mmHg 66%
    19:00 +25°C° 0 mm 5 m/S 762 mmHg 68%
    20:00 +25°C° 0 mm 5 m/S 762 mmHg 69%
    21:00 +25°C° 0 mm 5 m/S 762 mmHg 70%
    22:00 +26°C° 0 mm 5 m/S 762 mmHg 68%
    23:00 +26°C° 0 mm 4 m/S 761 mmHg 67%

    übermorgen, 19 November, Dienstag

    Zeit Temperatur Niederschläge Wind Luftdruck Luftfeuchtigkeit
    00:00 +26°C° 0 mm 4 m/S 761 mmHg 65%
    01:00 +26°C° 0 mm 3 m/S 761 mmHg 65%
    02:00 +26°C° 0 mm 3 m/S 761 mmHg 65%
    03:00 +26°C° 0 mm 2 m/S 761 mmHg 65%
    04:00 +26°C° 0.1 mm 2 m/S 761 mmHg 65%
    05:00 +26°C° 0.1 mm 1 m/S 761 mmHg 65%
    06:00 +26°C° 0.1 mm 1 m/S 761 mmHg 65%
    07:00 +25°C° 0.5 mm 3 m/S 762 mmHg 70%
    08:00 +25°C° 0.5 mm 5 m/S 762 mmHg 75%
    09:00 +24°C° 0.5 mm 7 m/S 762 mmHg 80%
    10:00 +24°C° 1 mm 8 m/S 762 mmHg 80%
    11:00 +24°C° 1 mm 8 m/S 762 mmHg 80%
    12:00 +23°C° 1 mm 9 m/S 761 mmHg 80%
    13:00 +23°C° 1 mm 9 m/S 761 mmHg 81%
    14:00 +23°C° 1 mm 9 m/S 761 mmHg 81%
    15:00 +23°C° 1 mm 9 m/S 761 mmHg 82%
    16:00 +22°C° 1.5 mm 9 m/S 761 mmHg 82%
    17:00 +22°C° 1.5 mm 9 m/S 762 mmHg 82%
    18:00 +22°C° 1.5 mm 9 m/S 762 mmHg 82%
    19:00 +22°C° 0.3 mm 8 m/S 762 mmHg 76%
    20:00 +22°C° 0.3 mm 6 m/S 762 mmHg 71%
    21:00 +22°C° 0.3 mm 5 m/S 762 mmHg 65%
    22:00 +22°C° 0 mm 6 m/S 762 mmHg 64%
    23:00 +22°C° 0 mm 6 m/S 762 mmHg 63%

    20 November, Mittwoch

    Zeit Temperatur Niederschläge Wind Luftdruck Luftfeuchtigkeit
    00:00 +23°C° 0 mm 7 m/S 761 mmHg 61%
    01:00 +22°C° 0 mm 7 m/S 761 mmHg 60%
    02:00 +22°C° 0 mm 8 m/S 761 mmHg 59%
    03:00 +22°C° 0 mm 8 m/S 761 mmHg 58%
    04:00 +22°C° 0 mm 8 m/S 761 mmHg 56%
    05:00 +22°C° 0 mm 8 m/S 761 mmHg 54%
    06:00 +22°C° 0 mm 8 m/S 761 mmHg 51%
    07:00 +22°C° 0 mm 8 m/S 761 mmHg 51%
    08:00 +22°C° 0 mm 8 m/S 762 mmHg 51%
    09:00 +22°C° 0 mm 8 m/S 762 mmHg 51%
    10:00 +23°C° 0 mm 9 m/S 762 mmHg 50%
    11:00 +23°C° 0 mm 9 m/S 761 mmHg 50%
    12:00 +23°C° 0 mm 9 m/S 761 mmHg 49%
    13:00 +23°C° 0 mm 9 m/S 761 mmHg 48%
    14:00 +23°C° 0 mm 8 m/S 761 mmHg 48%
    15:00 +23°C° 0 mm 8 m/S 761 mmHg 47%
    16:00 +23°C° 0 mm 8 m/S 761 mmHg 48%
    17:00 +23°C° 0 mm 7 m/S 761 mmHg 48%
    18:00 +23°C° 0 mm 7 m/S 762 mmHg 49%
    19:00 +23°C° 0 mm 7 m/S 762 mmHg 48%
    20:00 +23°C° 0 mm 7 m/S 762 mmHg 48%
    21:00 +23°C° 0 mm 7 m/S 762 mmHg 48%
    22:00 +23°C° 0 mm 6 m/S 762 mmHg 48%
    23:00 +23°C° 0 mm 6 m/S 762 mmHg 48%

    21 November, Donnerstag

    Zeit Temperatur Niederschläge Wind Luftdruck Luftfeuchtigkeit
    00:00 +23°C° 0 mm 6 m/S 761 mmHg 48%
    01:00 +23°C° 0 mm 6 m/S 761 mmHg 47%
    02:00 +23°C° 0 mm 5 m/S 761 mmHg 46%
    03:00 +23°C° 0 mm 5 m/S 761 mmHg 46%
    04:00 +23°C° 0 mm 5 m/S 761 mmHg 45%
    05:00 +23°C° 0 mm 5 m/S 762 mmHg 45%
    06:00 +22°C° 0 mm 5 m/S 762 mmHg 44%
    07:00 +23°C° 0 mm 5 m/S 763 mmHg 45%
    08:00 +23°C° 0 mm 5 m/S 763 mmHg 46%
    09:00 +23°C° 0 mm 5 m/S 764 mmHg 46%
    10:00 +23°C° 0 mm 5 m/S 763 mmHg 47%
    11:00 +23°C° 0 mm 5 m/S 763 mmHg 48%
    12:00 +23°C° 0 mm 5 m/S 763 mmHg 48%
    13:00 +25°C° 0 mm 5 m/S 763 mmHg 48%
    14:00 +25°C° 0 mm 5 m/S 763 mmHg 47%
    15:00 +25°C° 0 mm 4 m/S 763 mmHg 47%
    16:00 +25°C° 0 mm 4 m/S 763 mmHg 46%
    17:00 +25°C° 0 mm 4 m/S 763 mmHg 45%
    18:00 +25°C° 0 mm 3 m/S 763 mmHg 45%
    19:00 +25°C° 0 mm 3 m/S 764 mmHg 44%
    20:00 +25°C° 0 mm 2 m/S 764 mmHg 42%
    21:00 +25°C° 0 mm 2 m/S 764 mmHg 41%
    22:00 +25°C° 0 mm 2 m/S 764 mmHg 41%
    23:00 +25°C° 0 mm 2 m/S 764 mmHg 41%

    22 November, Freitag

    Zeit Temperatur Niederschläge Wind Luftdruck Luftfeuchtigkeit
    00:00 +25°C° 0 mm 2 m/S 764 mmHg 41%
    01:00 +24°C° 0 mm 2 m/S 764 mmHg 42%
    02:00 +24°C° 0 mm 3 m/S 764 mmHg 43%
    03:00 +24°C° 0 mm 3 m/S 764 mmHg 44%
    04:00 +23°C° 0 mm 4 m/S 764 mmHg 46%
    05:00 +23°C° 0 mm 4 m/S 764 mmHg 47%
    06:00 +23°C° 0 mm 4 m/S 765 mmHg 48%
    07:00 +23°C° 0 mm 4 m/S 765 mmHg 48%
    08:00 +23°C° 0 mm 4 m/S 765 mmHg 48%
    09:00 +23°C° 0 mm 4 m/S 766 mmHg 48%
    10:00 +23°C° 0 mm 4 m/S 765 mmHg 48%
    11:00 +23°C° 0 mm 4 m/S 765 mmHg 48%
    12:00 +25°C° 0 mm 4 m/S 765 mmHg 48%
    13:00 +25°C° 0 mm 4 m/S 764 mmHg 48%
    14:00 +25°C° 0 mm 4 m/S 764 mmHg 47%
    15:00 +25°C° 0 mm 4 m/S 764 mmHg 47%
    16:00 +25°C° 0 mm 4 m/S 764 mmHg 46%
    17:00 +25°C° 0 mm 4 m/S 764 mmHg 44%
    18:00 +25°C° 0 mm 4 m/S 764 mmHg 43%
    19:00 +25°C° 0 mm 3 m/S 765 mmHg 43%
    20:00 +25°C° 0 mm 3 m/S 765 mmHg 42%
    21:00 +25°C° 0 mm 3 m/S 765 mmHg 42%
    22:00 +25°C° 0 mm 3 m/S 765 mmHg 42%
    23:00 +25°C° 0 mm 3 m/S 765 mmHg 43%
    Mehr zeigen